When you browse on this site, cookies collect data to enhance your experience and personalize the content and advertising you see.
Visit our Privacy Policy to learn more. By continuing to use the site, you agree to this use of cookies and data.
  • En España
  • Lista de países
  • Para 7 días
  • Temperatura del agua
  • El tiempo en el mapa
  • Informadores
  • user-avatar
    Iniciar sesión

    Tiempo cada hora Artashat

    Hoy, 26 Mayo, Martes

    Tiempo Temperatura Precipitaciones Viento Presión Humedad
    00:00 +6°C° 0 mm 2 mps 601 mmHg 73%
    01:00 +5°C° 0 mm 2 mps 601 mmHg 74%
    02:00 +5°C° 0 mm 2 mps 601 mmHg 74%
    03:00 +5°C° 0 mm 1 mps 601 mmHg 75%
    04:00 +6°C° 0 mm 1 mps 601 mmHg 73%
    05:00 +7°C° 0 mm 1 mps 602 mmHg 71%
    06:00 +7°C° 0 mm 1 mps 602 mmHg 70%
    07:00 +9°C° 0 mm 1 mps 603 mmHg 64%
    08:00 +10°C° 0 mm 1 mps 604 mmHg 59%
    09:00 +12°C° 0 mm 1 mps 604 mmHg 53%
    10:00 +13°C° 0 mm 1 mps 604 mmHg 51%
    11:00 +14°C° 0 mm 2 mps 605 mmHg 49%
    12:00 +15°C° 0 mm 2 mps 605 mmHg 46%
    13:00 +16°C° 0 mm 2 mps 605 mmHg 45%
    14:00 +17°C° 0 mm 2 mps 605 mmHg 44%
    15:00 +18°C° 0 mm 2 mps 605 mmHg 43%
    16:00 +17°C° 0 mm 2 mps 605 mmHg 45%
    17:00 +17°C° 0 mm 2 mps 605 mmHg 47%
    18:00 +16°C° 0 mm 2 mps 605 mmHg 49%
    19:00 +15°C° 0 mm 1 mps 605 mmHg 54%
    20:00 +13°C° 0 mm 1 mps 604 mmHg 59%
    21:00 +11°C° 0 mm 0 mps 604 mmHg 64%
    22:00 +11°C° 0 mm 0 mps 604 mmHg 62%
    23:00 +10°C° 0 mm 0 mps 604 mmHg 61%

    Mañana, 27 Mayo, Miércoles

    Tiempo Temperatura Precipitaciones Viento Presión Humedad
    00:00 +10°C° 0 mm 0 mps 604 mmHg 60%
    01:00 +10°C° 0 mm 0 mps 604 mmHg 60%
    02:00 +10°C° 0 mm 1 mps 603 mmHg 60%
    03:00 +10°C° 0 mm 1 mps 603 mmHg 60%
    04:00 +10°C° 0 mm 0 mps 604 mmHg 60%
    05:00 +11°C° 0 mm 0 mps 604 mmHg 61%
    06:00 +11°C° 0 mm 0 mps 605 mmHg 62%
    07:00 +14°C° 0 mm 1 mps 605 mmHg 56%
    08:00 +15°C° 0 mm 1 mps 606 mmHg 50%
    09:00 +18°C° 0 mm 1 mps 606 mmHg 44%
    10:00 +18°C° 0 mm 2 mps 607 mmHg 42%
    11:00 +19°C° 0 mm 2 mps 607 mmHg 40%
    12:00 +20°C° 0 mm 3 mps 607 mmHg 38%
    13:00 +21°C° 0 mm 2 mps 607 mmHg 38%
    14:00 +21°C° 0 mm 2 mps 607 mmHg 37%
    15:00 +23°C° 0 mm 2 mps 607 mmHg 37%
    16:00 +21°C° 0 mm 2 mps 607 mmHg 39%
    17:00 +21°C° 0 mm 2 mps 607 mmHg 42%
    18:00 +21°C° 0 mm 1 mps 607 mmHg 44%
    19:00 +19°C° 0 mm 1 mps 606 mmHg 49%
    20:00 +18°C° 0 mm 1 mps 606 mmHg 53%
    21:00 +14°C° 0 mm 0 mps 605 mmHg 57%
    22:00 +13°C° 0 mm 0 mps 605 mmHg 57%
    23:00 +13°C° 0 mm 0 mps 605 mmHg 56%

    Pasado mañana, 28 Mayo, Jueves

    Tiempo Temperatura Precipitaciones Viento Presión Humedad
    00:00 +12°C° 0 mm 0 mps 604 mmHg 56%
    01:00 +13°C° 0 mm 1 mps 604 mmHg 56%
    02:00 +13°C° 0 mm 1 mps 604 mmHg 57%
    03:00 +12°C° 0 mm 1 mps 604 mmHg 57%
    04:00 +13°C° 0 mm 1 mps 604 mmHg 58%
    05:00 +13°C° 0 mm 0 mps 604 mmHg 60%
    06:00 +14°C° 0 mm 0 mps 605 mmHg 61%
    07:00 +15°C° 0 mm 0 mps 605 mmHg 54%
    08:00 +19°C° 0 mm 1 mps 606 mmHg 47%
    09:00 +21°C° 0 mm 1 mps 606 mmHg 41%
    10:00 +22°C° 0 mm 1 mps 606 mmHg 38%
    11:00 +23°C° 0 mm 2 mps 606 mmHg 36%
    12:00 +24°C° 0 mm 2 mps 607 mmHg 34%
    13:00 +24°C° 0 mm 3 mps 606 mmHg 33%
    14:00 +25°C° 0 mm 3 mps 606 mmHg 32%
    15:00 +25°C° 0 mm 3 mps 606 mmHg 32%
    16:00 +24°C° 0.2 mm 3 mps 605 mmHg 37%
    17:00 +21°C° 0.2 mm 3 mps 605 mmHg 42%
    18:00 +20°C° 0.2 mm 3 mps 604 mmHg 48%
    19:00 +18°C° 0.1 mm 2 mps 604 mmHg 51%
    20:00 +17°C° 0.1 mm 2 mps 604 mmHg 54%
    21:00 +15°C° 0.1 mm 1 mps 603 mmHg 57%
    22:00 +15°C° 0.1 mm 1 mps 603 mmHg 56%
    23:00 +14°C° 0.1 mm 1 mps 602 mmHg 56%

    29 Mayo, Viernes

    Tiempo Temperatura Precipitaciones Viento Presión Humedad
    00:00 +14°C° 0.1 mm 1 mps 602 mmHg 56%
    01:00 +13°C° 0 mm 1 mps 601 mmHg 57%
    02:00 +13°C° 0 mm 1 mps 601 mmHg 57%
    03:00 +13°C° 0 mm 1 mps 600 mmHg 57%
    04:00 +14°C° 0 mm 1 mps 600 mmHg 57%
    05:00 +14°C° 0 mm 1 mps 601 mmHg 57%
    06:00 +15°C° 0 mm 1 mps 601 mmHg 57%
    07:00 +17°C° 0 mm 2 mps 601 mmHg 51%
    08:00 +19°C° 0 mm 2 mps 602 mmHg 44%
    09:00 +21°C° 0 mm 3 mps 602 mmHg 38%
    10:00 +22°C° 0 mm 3 mps 603 mmHg 34%
    11:00 +25°C° 0 mm 4 mps 603 mmHg 30%
    12:00 +26°C° 0 mm 5 mps 603 mmHg 25%
    13:00 +26°C° 0 mm 5 mps 603 mmHg 23%
    14:00 +27°C° 0 mm 6 mps 603 mmHg 21%
    15:00 +27°C° 0 mm 6 mps 603 mmHg 19%
    16:00 +24°C° 0 mm 6 mps 602 mmHg 23%
    17:00 +23°C° 0 mm 5 mps 602 mmHg 27%
    18:00 +21°C° 0 mm 5 mps 601 mmHg 31%
    19:00 +20°C° 0 mm 4 mps 601 mmHg 33%
    20:00 +18°C° 0 mm 3 mps 600 mmHg 35%
    21:00 +16°C° 0 mm 2 mps 600 mmHg 36%
    22:00 +15°C° 0 mm 2 mps 600 mmHg 36%
    23:00 +15°C° 0 mm 2 mps 600 mmHg 36%

    30 Mayo, Sábado

    Tiempo Temperatura Precipitaciones Viento Presión Humedad
    00:00 +14°C° 0 mm 2 mps 599 mmHg 36%
    01:00 +14°C° 0 mm 2 mps 599 mmHg 39%
    02:00 +12°C° 0 mm 3 mps 598 mmHg 42%
    03:00 +11°C° 0 mm 3 mps 598 mmHg 45%
    04:00 +11°C° 0 mm 3 mps 598 mmHg 47%
    05:00 +11°C° 0 mm 3 mps 599 mmHg 49%
    06:00 +11°C° 0 mm 3 mps 599 mmHg 52%
    07:00 +12°C° 0 mm 3 mps 600 mmHg 44%
    08:00 +13°C° 0 mm 3 mps 601 mmHg 36%
    09:00 +16°C° 0 mm 3 mps 602 mmHg 28%
    10:00 +17°C° 0 mm 3 mps 602 mmHg 26%
    11:00 +18°C° 0 mm 3 mps 603 mmHg 24%
    12:00 +19°C° 0 mm 3 mps 603 mmHg 22%
    13:00 +19°C° 0 mm 2 mps 604 mmHg 22%
    14:00 +20°C° 0 mm 2 mps 604 mmHg 21%
    15:00 +20°C° 0 mm 2 mps 604 mmHg 20%
    16:00 +20°C° 0 mm 2 mps 604 mmHg 23%
    17:00 +19°C° 0 mm 2 mps 604 mmHg 25%
    18:00 +19°C° 0 mm 2 mps 604 mmHg 27%
    19:00 +18°C° 0 mm 1 mps 603 mmHg 31%
    20:00 +15°C° 0 mm 1 mps 603 mmHg 35%
    21:00 +13°C° 0 mm 1 mps 603 mmHg 38%
    22:00 +13°C° 0 mm 1 mps 603 mmHg 38%
    23:00 +12°C° 0 mm 1 mps 602 mmHg 38%

    31 Mayo, Domingo

    Tiempo Temperatura Precipitaciones Viento Presión Humedad
    00:00 +12°C° 0 mm 1 mps 602 mmHg 38%
    01:00 +11°C° 0 mm 1 mps 602 mmHg 38%
    02:00 +11°C° 0 mm 1 mps 602 mmHg 39%
    03:00 +10°C° 0 mm 1 mps 601 mmHg 39%
    04:00 +11°C° 0 mm 1 mps 602 mmHg 42%
    05:00 +12°C° 0 mm 1 mps 603 mmHg 45%
    06:00 +12°C° 0 mm 0 mps 603 mmHg 47%
    07:00 +14°C° 0 mm 1 mps 604 mmHg 42%
    08:00 +16°C° 0 mm 1 mps 604 mmHg 36%
    09:00 +18°C° 0 mm 1 mps 605 mmHg 31%
    10:00 +18°C° 0 mm 2 mps 605 mmHg 30%
    11:00 +19°C° 0 mm 2 mps 605 mmHg 28%
    12:00 +21°C° 0 mm 3 mps 605 mmHg 27%
    13:00 +21°C° 0 mm 3 mps 605 mmHg 27%
    14:00 +22°C° 0 mm 3 mps 605 mmHg 26%
    15:00 +22°C° 0 mm 3 mps 605 mmHg 26%
    16:00 +22°C° 0 mm 3 mps 605 mmHg 28%
    17:00 +21°C° 0 mm 2 mps 604 mmHg 30%
    18:00 +21°C° 0 mm 2 mps 604 mmHg 32%
    19:00 +20°C° 0 mm 1 mps 603 mmHg 35%
    20:00 +18°C° 0 mm 1 mps 603 mmHg 37%
    21:00 +15°C° 0 mm 1 mps 602 mmHg 40%
    22:00 +15°C° 0 mm 1 mps 602 mmHg 40%
    23:00 +14°C° 0 mm 2 mps 602 mmHg 40%
    Mostrar más